This demonstration page uses our WeatherBlox Daily Observations layout. Learn more.

Left ArrowRight Arrow

Hourly Observations for December 24, 2020

Temp ( °F °C ) Dew Point ( °F °C ) Humidity (%) Winds ( mph kmh ) Pressure ( in mb ) Visibility ( mi km ) Precip ( " mm )
12:14 am 00:14 Cloudy 18 -7.8 8 -13.3 65 65 NW 14 22 30.17 1022 10 16.0934 0 0
12:54 am 00:54 Mostly Cloudy 17 -8.3 8 -13.3 68 68 NW 15 24 30.12 1020 10 16.0934 0 0
1:05 am 01:05 Mostly Clear 17 -8.3 8 -13.3 68 68 NW 15 24 30.16 1021 10 16.0934 0 0
1:54 am 01:54 Partly Cloudy 17 -8.3 7 -13.9 64 64 NNW 15 24 30.13 1020 10 16.0934 0 0
2:01 am 02:01 Mostly Cloudy 16 -8.9 7 -13.9 67 67 NNW 13 20 30.18 1022 10 16.0934 0 0
2:54 am 02:54 Partly Cloudy 15 -9.4 6 -14.4 67 67 NNW 14 22 30.14 1021 10 16.0934 0 0
3:54 am 03:54 Clear 14 -10 5 -15 67 67 NNW 13 20 30.14 1021 10 16.0934 0 0
4:54 am 04:54 Clear 14 -10 5 -15 67 67 NNW 9 15 30.14 1021 10 16.0934 0 0
5:54 am 05:54 Clear 13 -10.6 4 -15.6 67 67 NW 7 11 30.15 1021 10 16.0934 0 0
6:54 am 06:54 Mostly Cloudy 11 -11.7 3 -16.1 70 70 WNW 6 9 30.18 1022 10 16.0934 0 0
7:43 am 07:43 Mostly Cloudy 11 -11.7 4 -15.6 73 73 WNW 7 11 30.25 1024 10 16.0934 0 0
7:54 am 07:54 Cloudy 12 -11.1 4 -15.6 70 70 NW 8 13 30.2 1023 10 16.0934 0 0
8:54 am 08:54 Mostly Cloudy 13 -10.6 4 -15.6 67 67 NW 6 9 30.21 1023 10 16.0934 0 0
9:08 am 09:08 Partly Cloudy 13 -10.6 5 -15 70 70 NW 7 11 30.26 1025 10 16.0934 0 0
9:54 am 09:54 Sunny 15 -9.4 5 -15 64 64 N 8 13 30.23 1024 10 16.0934 0 0
10:16 am 10:16 Mostly Cloudy 15 -9.4 6 -14.4 67 67 N 13 20 30.28 1025 9 14.48406 0 0
10:24 am 10:24 Partly Cloudy 16 -8.9 6 -14.4 65 65 NNW 12 19 30.28 1025 9 14.48406 0 0
10:54 am 10:54 Mostly Cloudy 17 -8.3 6 -14.4 62 62 N 13 20 30.22 1024 10 16.0934 0 0
11:54 am 11:54 Cloudy 17 -8.3 6 -14.4 62 62 N 13 20 30.23 1024 10 16.0934 0 0
12:19 pm 12:19 Mostly Cloudy 18 -7.8 6 -14.4 59 59 N 14 22 30.26 1025 10 16.0934 0 0
12:30 pm 12:30 Mostly Cloudy 18 -7.8 7 -13.9 62 62 NNW 14 22 30.26 1025 10 16.0934 0 0
12:54 pm 12:54 Mostly Cloudy 19 -7.2 7 -13.9 59 59 NNW 14 22 30.22 1023 10 16.0934 0 0
1:54 pm 13:54 Mostly Cloudy 20 -6.7 7 -13.9 57 57 NNW 15 24 30.22 1023 10 16.0934 0 0
2:54 pm 14:54 Mostly Cloudy 20 -6.7 8 -13.3 60 60 NW 10 17 30.22 1023 10 16.0934 0 0
3:30 pm 15:30 Partly Cloudy 20 -6.7 8 -13.3 60 60 NNW 16 26 30.25 1025 10 16.0934 0 0
3:54 pm 15:54 Sunny 20 -6.7 8 -13.3 60 60 NNW 14 22 30.23 1024 10 16.0934 0 0
4:54 pm 16:54 Sunny 16 -8.9 7 -13.9 67 67 N 9 15 30.23 1024 10 16.0934 0 0
5:54 pm 17:54 Clear 10 -12.2 3 -16.1 73 73 NNE 6 9 30.24 1024 10 16.0934 0 0
6:54 pm 18:54 Clear 8 -13.3 3 -16.1 80 80 NNE 6 9 30.27 1025 10 16.0934 0 0
7:54 pm 19:54 Clear 9 -12.8 2 -16.7 73 73 NNE 5 7 30.27 1025 10 16.0934 0 0
8:54 pm 20:54 Clear 7 -13.9 2 -16.7 80 80 N 5 7 30.28 1025 10 16.0934 0 0
9:54 pm 21:54 Clear 10 -12.2 3 -16.1 73 73 WNW 3 6 30.27 1025 10 16.0934 0 0
10:54 pm 22:54 Clear 8 -13.3 2 -16.7 76 76 N 5 7 30.28 1026 10 16.0934 0 0
11:54 pm 23:54 Clear 9 -12.8 2 -16.7 73 73 Calm 30.29 1026 10 16.0934 0 0

Powered by AerisWeather